Location: Bron Breck
(40.6655°N, 111.8083°W)
Time: 02:01:55
(UTC+00:00)

N. Korean satellite - Pass Details

Date: 04 March 2021
Orbit: 453 x 499 km, 97.2° (Epoch: 11 April)

Event Time Altitude Azimuth Distance (km) Brightness Sun altitude
Rises 12:49:58 0° 12° (NNE) 2,527 10.4 -13.3°
Reaches altitude 10° 12:52:01 10° 13° (NNE) 1,653 9.5 -12.9°
Maximum altitude 12:55:34 83° 102° (ESE) 490 6.6 -12.3°
Drops below altitude 10° 12:59:10 10° 190° (S) 1,666 9.2 -11.6°
Sets 13:01:14 0° 191° (SSW) 2,549 10.1 -11.2°
